TimeCDT,TemperatureF,Dew PointF,Humidity,Sea Level PressureIn,VisibilityMPH,Wind Direction,Wind SpeedMPH,Gust SpeedMPH,PrecipitationIn,Events,Conditions,WindDirDegrees,DateUTC
12:53 AM,64.0,61.0,90,29.86,10.0,SSE,3.5,-,N/A,,Clear,150,2013-09-15 05:53:00
1:53 AM,63.0,61.0,93,29.87,8.0,SE,6.9,-,N/A,,Scattered Clouds,130,2013-09-15 06:53:00
2:46 AM,64.4,62.6,94,29.96,9.0,Calm,Calm,-,N/A,Thunderstorm,Mostly Cloudy,0,2013-09-15 07:46:00
2:53 AM,64.0,61.0,90,29.89,9.0,Calm,Calm,-,N/A,Thunderstorm,Mostly Cloudy,0,2013-09-15 07:53:00
3:01 AM,64.4,62.6,94,29.96,10.0,Calm,Calm,-,N/A,,Mostly Cloudy,0,2013-09-15 08:01:00
3:34 AM,64.4,62.6,94,29.97,1.8,NNW,10.4,-,0.08,Rain,Heavy Rain,340,2013-09-15 08:34:00
3:45 AM,62.6,60.8,94,29.98,2.0,North,8.1,-,0.27,Rain-Thunderstorm,Heavy Thunderstorms and Rain,350,2013-09-15 08:45:00
3:48 AM,62.6,60.8,94,29.98,1.8,North,12.7,18.4,0.33,Rain-Thunderstorm,Heavy Thunderstorms and Rain,350,2013-09-15 08:48:00
3:53 AM,62.1,61.0,96,29.93,1.2,North,15.0,23.0,0.48,Rain-Thunderstorm,Heavy Thunderstorms and Rain,10,2013-09-15 08:53:00
4:05 AM,62.6,60.8,94,29.99,0.8,NE,20.7,26.5,0.63,Rain-Thunderstorm,Heavy Thunderstorms and Rain,40,2013-09-15 09:05:00
4:31 AM,60.8,60.8,100,30.00,1.2,NNE,13.8,-,1.87,Rain,Heavy Rain,20,2013-09-15 09:31:00
4:33 AM,60.8,60.8,100,30.00,1.5,NNE,12.7,-,1.94,Rain,Heavy Rain,20,2013-09-15 09:33:00
4:42 AM,62.6,60.8,94,30.00,3.0,North,13.8,-,2.12,Rain-Thunderstorm,Rain,10,2013-09-15 09:42:00
4:50 AM,62.6,60.8,94,29.99,2.5,NNE,15.0,-,2.17,Rain-Thunderstorm,Heavy Rain,20,2013-09-15 09:50:00
4:53 AM,62.1,60.1,93,29.93,2.5,NNE,15.0,-,2.20,Rain-Thunderstorm,Heavy Rain,30,2013-09-15 09:53:00
5:00 AM,62.6,60.8,94,29.99,2.5,NNE,15.0,-,0.08,Rain,Heavy Rain,30,2013-09-15 10:00:00
5:09 AM,62.6,60.8,94,29.99,4.0,NNE,15.0,-,0.11,Rain,Rain,30,2013-09-15 10:09:00
5:53 AM,62.1,60.1,93,29.92,10.0,NNE,16.1,21.9,0.14,Rain,Light Rain,20,2013-09-15 10:53:00
6:38 AM,62.6,59.0,88,30.01,10.0,NNE,18.4,28.8,0.00,,Mostly Cloudy,20,2013-09-15 11:38:00
6:53 AM,62.1,57.9,86,29.95,10.0,NNE,19.6,26.5,0.00,,Overcast,30,2013-09-15 11:53:00
7:05 AM,60.8,57.2,88,30.01,10.0,NNE,18.4,27.6,N/A,,Overcast,30,2013-09-15 12:05:00
7:17 AM,60.8,57.2,88,30.02,10.0,NNE,17.3,26.5,N/A,,Overcast,30,2013-09-15 12:17:00
7:53 AM,60.1,57.0,90,29.99,10.0,NNE,15.0,28.8,N/A,,Overcast,20,2013-09-15 12:53:00
8:02 AM,60.8,55.4,82,30.05,10.0,NNE,16.1,25.3,N/A,,Overcast,20,2013-09-15 13:02:00
8:53 AM,59.0,55.9,90,30.04,10.0,NNE,13.8,19.6,N/A,,Overcast,30,2013-09-15 13:53:00
9:53 AM,59.0,54.0,83,30.09,10.0,NE,16.1,26.5,N/A,,Overcast,40,2013-09-15 14:53:00
10:00 AM,59.0,53.6,82,30.14,10.0,NNE,18.4,25.3,N/A,,Overcast,30,2013-09-15 15:00:00
10:53 AM,59.0,53.1,81,30.13,10.0,NE,15.0,20.7,N/A,,Overcast,40,2013-09-15 15:53:00
11:53 AM,59.0,53.1,81,30.15,10.0,NE,15.0,21.9,N/A,,Overcast,40,2013-09-15 16:53:00
12:53 PM,64.0,53.1,67,30.15,10.0,NE,15.0,20.7,N/A,,Mostly Cloudy,50,2013-09-15 17:53:00
1:53 PM,63.0,53.1,70,30.16,10.0,NE,11.5,-,N/A,,Overcast,40,2013-09-15 18:53:00
2:53 PM,64.0,52.0,65,30.16,10.0,NE,10.4,20.7,N/A,,Mostly Cloudy,40,2013-09-15 19:53:00
3:13 PM,64.4,51.8,64,30.21,10.0,ENE,10.4,-,N/A,,Scattered Clouds,60,2013-09-15 20:13:00
3:53 PM,64.9,53.1,65,30.17,10.0,NE,9.2,-,N/A,,Mostly Cloudy,50,2013-09-15 20:53:00
4:53 PM,66.0,52.0,60,30.17,10.0,ENE,13.8,-,N/A,,Mostly Cloudy,60,2013-09-15 21:53:00
5:53 PM,64.9,52.0,63,30.17,10.0,NE,11.5,-,N/A,,Scattered Clouds,40,2013-09-15 22:53:00
6:53 PM,64.0,52.0,65,30.19,10.0,NE,10.4,-,N/A,,Overcast,40,2013-09-15 23:53:00
7:53 PM,63.0,53.1,70,30.20,10.0,NE,5.8,-,N/A,,Mostly Cloudy,50,2013-09-16 00:53:00
8:53 PM,62.1,53.1,72,30.22,10.0,NE,9.2,-,N/A,,Scattered Clouds,40,2013-09-16 01:53:00
9:53 PM,60.1,52.0,75,30.24,10.0,NE,9.2,-,N/A,,Clear,50,2013-09-16 02:53:00
10:53 PM,59.0,52.0,78,30.26,10.0,ENE,9.2,-,N/A,,Overcast,60,2013-09-16 03:53:00
11:53 PM,57.9,53.1,84,30.26,10.0,East,8.1,-,N/A,,Overcast,80,2013-09-16 04:53:00